Terug naar catalogus

NAVSTAR 65

USA 213

ActiefNavigatieHEO
NORAD 36585·PAYLOAD·🇺🇸 United States

Gelanceerd May 28, 2010 vanaf Cape Canaveral Space Force Station

Loading…

Volgende Passages (komende 24 uur)

TLE

VersSource: CelesTrak SupGP

Epoch: Sep 17, 2026, 16:38 UTC

1 36585C 10022A   26260.69312500  .00000000  00000+0  00000+0 0  2603
2 36585  54.2592 204.8374 0115846  55.7801 306.8490  2.00610270    14

Volg NAVSTAR 65 in realtime met AllMySat

Download on the App Store